• In Hungary
  • List of Countries
  • For 7 days
  • Water Temperature
  • Satellite Maps
  • Weather Map
  • News
  • Weather Widgets
  • user-avatar
    Login

    Hourly Weather Oklahoma City

    Today, 18 February, Sunday

    Time Temperature Precipitation Wind Pressure Humidity
    00:00 +7°C° 0 mm 3 mps 733 mmHg 59%
    01:00 +5°C° 0 mm 3 mps 733 mmHg 61%
    02:00 +5°C° 0 mm 3 mps 732 mmHg 63%
    03:00 +5°C° 0 mm 4 mps 732 mmHg 67%
    04:00 +4°C° 0 mm 4 mps 732 mmHg 71%
    05:00 +4°C° 0 mm 4 mps 732 mmHg 74%
    06:00 +4°C° 0 mm 6 mps 732 mmHg 76%
    07:00 +5°C° 0 mm 7 mps 731 mmHg 78%
    08:00 +5°C° 0 mm 8 mps 731 mmHg 80%
    09:00 +7°C° 0 mm 8 mps 731 mmHg 76%
    10:00 +9°C° 0 mm 8 mps 730 mmHg 71%
    11:00 +11°C° 0 mm 8 mps 729 mmHg 67%
    12:00 +12°C° 0 mm 8 mps 728 mmHg 65%
    13:00 +15°C° 0 mm 9 mps 727 mmHg 63%
    14:00 +16°C° 0 mm 9 mps 726 mmHg 61%
    15:00 +16°C° 0 mm 9 mps 725 mmHg 65%
    16:00 +16°C° 0 mm 8 mps 725 mmHg 70%
    17:00 +15°C° 0 mm 8 mps 725 mmHg 75%
    18:00 +15°C° 0 mm 8 mps 724 mmHg 79%
    19:00 +15°C° 0 mm 9 mps 724 mmHg 84%
    20:00 +15°C° 0 mm 9 mps 724 mmHg 88%
    21:00 +16°C° 0.2 mm 10 mps 724 mmHg 88%
    22:00 +16°C° 0.2 mm 10 mps 724 mmHg 87%
    23:00 +17°C° 0.2 mm 10 mps 724 mmHg 87%

    Tomorrow, 19 February, Monday

    Time Temperature Precipitation Wind Pressure Humidity
    00:00 +17°C° 0.1 mm 10 mps 724 mmHg 87%
    01:00 +17°C° 0.1 mm 10 mps 723 mmHg 87%
    02:00 +18°C° 0.1 mm 10 mps 723 mmHg 87%
    03:00 +17°C° 0.3 mm 10 mps 723 mmHg 87%
    04:00 +17°C° 0.3 mm 10 mps 723 mmHg 87%
    05:00 +17°C° 0.3 mm 9 mps 723 mmHg 86%
    06:00 +17°C° 0.3 mm 9 mps 723 mmHg 86%
    07:00 +18°C° 0.3 mm 9 mps 723 mmHg 85%
    08:00 +18°C° 0.3 mm 9 mps 724 mmHg 85%
    09:00 +18°C° 0.5 mm 9 mps 724 mmHg 84%
    10:00 +18°C° 0.5 mm 9 mps 724 mmHg 83%
    11:00 +19°C° 0.5 mm 9 mps 724 mmHg 82%
    12:00 +21°C° 0.1 mm 9 mps 723 mmHg 79%
    13:00 +21°C° 0.1 mm 9 mps 722 mmHg 76%
    14:00 +22°C° 0.1 mm 9 mps 722 mmHg 73%
    15:00 +22°C° 0.2 mm 9 mps 722 mmHg 75%
    16:00 +21°C° 0.2 mm 9 mps 722 mmHg 77%
    17:00 +21°C° 0.2 mm 9 mps 722 mmHg 79%
    18:00 +19°C° 0.5 mm 9 mps 722 mmHg 81%
    19:00 +19°C° 0.5 mm 9 mps 722 mmHg 84%
    20:00 +18°C° 0.5 mm 9 mps 722 mmHg 86%
    21:00 +18°C° 0.4 mm 9 mps 722 mmHg 87%
    22:00 +18°C° 0.4 mm 9 mps 722 mmHg 88%
    23:00 +18°C° 0.4 mm 10 mps 722 mmHg 89%

    Day after tomorrow, 20 February, Tuesday

    Time Temperature Precipitation Wind Pressure Humidity
    00:00 +18°C° 1.1 mm 10 mps 722 mmHg 87%
    01:00 +19°C° 1.1 mm 10 mps 722 mmHg 85%
    02:00 +19°C° 1.1 mm 10 mps 722 mmHg 82%
    03:00 +19°C° 0.9 mm 10 mps 722 mmHg 82%
    04:00 +18°C° 0.9 mm 9 mps 722 mmHg 82%
    05:00 +18°C° 0.9 mm 9 mps 722 mmHg 81%
    06:00 +18°C° 0.4 mm 9 mps 722 mmHg 79%
    07:00 +20°C° 0.4 mm 8 mps 723 mmHg 78%
    08:00 +20°C° 0.4 mm 8 mps 723 mmHg 76%
    09:00 +21°C° 0.1 mm 8 mps 723 mmHg 65%
    10:00 +22°C° 0.1 mm 8 mps 724 mmHg 55%
    11:00 +23°C° 0.1 mm 8 mps 724 mmHg 45%
    12:00 +23°C° 0 mm 7 mps 724 mmHg 39%
    13:00 +23°C° 0 mm 7 mps 724 mmHg 34%
    14:00 +24°C° 0 mm 6 mps 724 mmHg 29%
    15:00 +22°C° 0 mm 5 mps 725 mmHg 32%
    16:00 +21°C° 0 mm 5 mps 726 mmHg 35%
    17:00 +19°C° 0 mm 4 mps 726 mmHg 38%
    18:00 +15°C° 0 mm 6 mps 728 mmHg 41%
    19:00 +10°C° 0 mm 7 mps 729 mmHg 45%
    20:00 +6°C° 0 mm 9 mps 730 mmHg 48%
    21:00 +5°C° 0 mm 9 mps 731 mmHg 48%
    22:00 +2°C° 0 mm 8 mps 732 mmHg 47%
    23:00 +1°C° 0 mm 8 mps 733 mmHg 46%

    21 February, Wednesday

    Time Temperature Precipitation Wind Pressure Humidity
    00:00 0°C° 0 mm 8 mps 734 mmHg 47%
    01:00 -2°C° 0 mm 8 mps 734 mmHg 48%
    02:00 -4°C° 0 mm 8 mps 735 mmHg 49%
    03:00 -5°C° 0 mm 9 mps 735 mmHg 50%
    04:00 -5°C° 0 mm 9 mps 736 mmHg 50%
    05:00 -6°C° 0 mm 9 mps 737 mmHg 50%
    06:00 -6°C° 0 mm 9 mps 737 mmHg 48%
    07:00 -6°C° 0 mm 9 mps 738 mmHg 46%
    08:00 -6°C° 0 mm 9 mps 739 mmHg 44%
    09:00 -4°C° 0 mm 9 mps 739 mmHg 42%
    10:00 -1°C° 0 mm 8 mps 739 mmHg 39%
    11:00 0°C° 0 mm 8 mps 739 mmHg 36%
    12:00 0°C° 0 mm 8 mps 738 mmHg 38%
    13:00 +1°C° 0 mm 8 mps 738 mmHg 39%
    14:00 +2°C° 0 mm 7 mps 738 mmHg 41%
    15:00 0°C° 0.1 mm 7 mps 738 mmHg 43%
    16:00 0°C° 0.1 mm 7 mps 738 mmHg 46%
    17:00 +1°C° 0.1 mm 6 mps 738 mmHg 48%
    18:00 -1°C° 0 mm 6 mps 738 mmHg 51%
    19:00 0°C° 0 mm 5 mps 739 mmHg 53%
    20:00 -1°C° 0 mm 5 mps 739 mmHg 55%
    21:00 -1°C° 0 mm 5 mps 739 mmHg 58%
    22:00 -1°C° 0 mm 4 mps 739 mmHg 60%
    23:00 -1°C° 0 mm 4 mps 739 mmHg 62%

    22 February, Thursday

    Time Temperature Precipitation Wind Pressure Humidity
    00:00 -1°C° 0 mm 4 mps 739 mmHg 64%
    01:00 -1°C° 0 mm 4 mps 739 mmHg 66%
    02:00 -1°C° 0 mm 4 mps 739 mmHg 67%
    03:00 -1°C° 0 mm 4 mps 739 mmHg 70%
    04:00 -2°C° 0 mm 4 mps 739 mmHg 72%
    05:00 -2°C° 0 mm 4 mps 739 mmHg 75%
    06:00 -1°C° 0 mm 4 mps 739 mmHg 75%
    07:00 -1°C° 0 mm 4 mps 739 mmHg 75%
    08:00 0°C° 0 mm 3 mps 740 mmHg 76%
    09:00 +1°C° 0 mm 3 mps 739 mmHg 75%
    10:00 +2°C° 0 mm 3 mps 739 mmHg 74%
    11:00 +4°C° 0 mm 2 mps 739 mmHg 73%
    12:00 +5°C° 0 mm 2 mps 738 mmHg 72%
    13:00 +6°C° 0 mm 2 mps 737 mmHg 71%
    14:00 +7°C° 0 mm 2 mps 736 mmHg 71%
    15:00 +7°C° 0 mm 2 mps 736 mmHg 73%
    16:00 +7°C° 0 mm 2 mps 736 mmHg 76%
    17:00 +7°C° 0 mm 2 mps 735 mmHg 78%
    18:00 +7°C° 0 mm 2 mps 735 mmHg 80%
    19:00 +7°C° 0 mm 2 mps 735 mmHg 83%
    20:00 +8°C° 0 mm 1 mps 735 mmHg 85%
    21:00 +8°C° 0.4 mm 2 mps 734 mmHg 88%
    22:00 +8°C° 0.4 mm 3 mps 734 mmHg 91%
    23:00 +7°C° 0.4 mm 4 mps 733 mmHg 94%

    23 February, Friday

    Time Temperature Precipitation Wind Pressure Humidity
    00:00 +8°C° 0.9 mm 4 mps 732 mmHg 95%
    01:00 +8°C° 0.9 mm 4 mps 731 mmHg 96%
    02:00 +8°C° 0.9 mm 4 mps 730 mmHg 97%
    03:00 +10°C° 0.4 mm 4 mps 730 mmHg 97%
    04:00 +10°C° 0.4 mm 4 mps 730 mmHg 97%
    05:00 +10°C° 0.4 mm 4 mps 729 mmHg 97%
    06:00 +11°C° 0.9 mm 4 mps 729 mmHg 96%
    07:00 +11°C° 0.9 mm 4 mps 728 mmHg 96%
    08:00 +12°C° 0.9 mm 5 mps 728 mmHg 96%
    09:00 +13°C° 0.7 mm 6 mps 727 mmHg 93%
    10:00 +14°C° 0.7 mm 7 mps 727 mmHg 91%
    11:00 +15°C° 0.7 mm 7 mps 726 mmHg 89%
    12:00 +16°C° 0 mm 8 mps 725 mmHg 83%
    13:00 +18°C° 0 mm 8 mps 724 mmHg 77%
    14:00 +20°C° 0 mm 8 mps 723 mmHg 71%
    15:00 +20°C° 0 mm 7 mps 723 mmHg 69%
    16:00 +19°C° 0 mm 6 mps 723 mmHg 67%
    17:00 +19°C° 0 mm 5 mps 723 mmHg 65%
    18:00 +17°C° 0 mm 5 mps 723 mmHg 68%
    19:00 +16°C° 0 mm 5 mps 723 mmHg 70%
    20:00 +14°C° 0 mm 4 mps 724 mmHg 73%
    21:00 +14°C° 0 mm 4 mps 724 mmHg 70%
    22:00 +13°C° 0 mm 4 mps 724 mmHg 68%
    23:00 +12°C° 0 mm 4 mps 724 mmHg 65%
    Show more